Regional Weather Roundup
Issued by NWS

Home | Current Version | Previous Version | Text Only | Print | Product List | Glossary Off
Versions: 1 2 3 4 5 6 7 8 9 10 11 12 13 14 15 16 17 18 19 20 21 22 23 24 25 26 27 28 29 30 31 32 33 34 35 36 37 38 39 40 41 42 43 44 45 46 47 48 49 50

947
ASUS43 KLSX 220507
RWRMO

WEATHER SUMMARY FOR MISSOURI
NATIONAL WEATHER SERVICE SPRINGFIELD MO
1200 AM CDT TUE MAY 22 2018

NOTE: "FAIR" INDICATES FEW OR NO CLOUDS BELOW 12,000 FEET WITH NO
       SIGNIFICANT WEATHER AND/OR OBSTRUCTIONS TO VISIBILITY.
       CURRENT SKY AND/OR WEATHER CONDITIONS ARE NOT AVAILABLE FOR
       CHILLICOTHE AND FARMINGTON.

MOZ001>031-035>038-043-044-053-054-220600-
...NORTHERN AND WESTERN MISSOURI...

CITY           SKY/WX    TMP DP  RH WIND       PRES   REMARKS
KANSAS CTY INT PTCLDY    61  57  87 SE7       30.04R
KANSAS C DTWN  CLEAR     68  58  70 CALM      30.03R
LEE`S SUMMIT   CLEAR     64  60  87 CALM      30.04S
ST JOSEPH      CLEAR     62  59  90 S5        30.04R
CHILLICOTHE      N/A     60  58  92 CALM      30.04R
KIRKSVILLE     CLEAR     58  58 100 CALM      30.03R FOG

$$
MOZ066>068-077>081-088>096-101>105-220600-
...SOUTHWEST MISSOURI...

CITY           SKY/WX    TMP DP  RH WIND       PRES   REMARKS
SPRINGFIELD    CLEAR     66  61  84 CALM      30.03F
JOPLIN         CLEAR     66  63  90 E5        30.03F
BRANSON        CLEAR     66  66 100 CALM      30.05S

$$
MOZ032>034-039>042-045>050-055>058-069>072-220600-
...CENTRAL MISSOURI...

CITY           SKY/WX    TMP DP  RH WIND       PRES   REMARKS
COLUMBIA       CLEAR     64  60  87 SW5       30.03R
JEFFERSON CITY CLEAR     64  61  90 CALM      30.02S
ROLLA          CLEAR     66  62  87 CALM      30.04S
SEDALIA        CLEAR     64  63  96 NW3       30.04S
WHITEMAN AFB   CLEAR     63  60  89 NW3       29.99F
WARRENSBURG    CLEAR     61  59  94 CALM      30.04S FOG
OSAGE BEACH    CLEAR     62  61  96 CALM      30.04S

$$
MOZ051-052-059>065-220600-
...EAST CENTRAL MISSOURI...

CITY           SKY/WX    TMP DP  RH WIND       PRES   REMARKS
ST LOUIS INTL  PTCLDY    72  68  87 SW3       30.00F
SPIRIT OF STL  MOCLDY    70  69  97 CALM      29.99S
ST CHARLES     PTCLDY    72  69  90 S3        29.99S

$$
MOZ072>076-082>087-097>100-106>115-220600-
...SOUTH CENTRAL AND SOUTHEAST MISSOURI...

CITY           SKY/WX    TMP DP  RH WIND       PRES   REMARKS
CAPE GIRARDEAU FAIR      71  67  87 CALM      30.01F
POPLAR BLUFF   FAIR      71  71 100 NW3       30.01F
WEST PLAINS    CLEAR     70  67  90 CALM      30.05F

$$




USA.gov is the U.S. government's official web portal to all federal, state and local government web resources and services.